Regional Weather Roundup
Issued by NWS

Home | Current Version | Previous Version | Text Only | Print | Product List | Glossary Off
Versions: 1 2 3 4 5 6 7 8 9 10 11 12 13 14 15 16 17 18 19 20 21 22 23 24 25 26 27

000
ASUS45 KCYS 252010
RWRWY

WYOMING REGIONAL WEATHER ROUNDUP
NATIONAL WEATHER SERVICE CHEYENNE WY
200 PM MDT SUN JUN 25 2017

NOTE:  "FAIR" INDICATES FEW OR NO CLOUDS BELOW 12,000 FEET
WITH NO SIGNIFICANT WEATHER AND/OR OBSTRUCTIONS TO VISIBILITY.

WYZ001-252100-
YELLOWSTONE NATIONAL PARK

CITY           SKY/WX    TMP DP  RH WIND       PRES   REMARKS
LK YELLOWSTONE   N/A     62  37  39 E7        30.46F
W YELLOWSTONE  NOT AVBL

$$
WYZ002>013-054>058-071-098>099-252100-
NORTHERN WYOMING

CITY           SKY/WX    TMP DP  RH WIND       PRES   REMARKS
JACKSON        SUNNY     73  39  29 CALM      30.36F
CODY           FAIR      72  35  25 E8        30.31F
GREYBULL       FAIR      80  30  16 N9        30.25F
WORLAND        FAIR      78  34  20 NE6       30.27F
SHERIDAN       FAIR      77  36  22 W6        30.29F
BUFFALO        FAIR      72  35  25 NW10G16   30.34F
GILLETTE       FAIR      75  30  19 N12G21    30.28F
NEWCASTLE      FAIR      72  32  23 NW8       30.30F

$$
WYZ014>020-022>026-101>103-252100-
CENTRAL WYOMING

CITY           SKY/WX    TMP DP  RH WIND       PRES   REMARKS
BIG PINEY      FAIR      74  36  25 MISG      30.40F
PINEDALE       FAIR      72  30  21 N5G17     30.41F
DUBOIS         FAIR      73  27  17 N12G22    30.37F
LANDER         FAIR      74  38  27 CALM      30.31F
RIVERTON       FAIR      71  35  26 CALM      30.32F
CASPER         FAIR      75  32  20 CALM      30.31F
DOUGLAS        FAIR      76  38  25 NW12      30.31F

$$
WYZ021-027>030-104>119-252100-
SOUTHERN WYOMING

CITY           SKY/WX    TMP DP  RH WIND       PRES   REMARKS
EVANSTON       FAIR      76  27  16 E9        30.39F
KEMMERER         N/A     73  30  20 E5        30.42F
FORT BRIDGER   FAIR      77  26  15 E8        30.42F
ROCK SPRINGS   FAIR      76  27  16 VRB3      30.38F
DIXON          FAIR      80  28  14 S8G17     30.35F
RAWLINS        FAIR      74  27  17 W8G21     30.38F
SARATOGA       FAIR      73  32  21 NW15G21   30.39F
LARAMIE        FAIR      74  34  23 N12G22    30.37F
CHEYENNE       FAIR      66  47  50 S7G16     30.37F
TORRINGTON     FAIR      77  39  25 SE9       30.27F
PINE BLUFFS    CLOUDY    66  48  52 CALM      30.36F

$$




USA.gov is the U.S. government's official web portal to all federal, state and local government web resources and services.